DW6942 Weather Reports


time (UTC)temp
C
wind
direction
speed
KPH
gust
KPH
rain 1hr
cm
rain 24hr
cm
rain mn
cm
humidity
%
barometer
mb
20260505014525 23 179 1.6 12.9 0.00 0.00 0.00 72 1011.6
20260505013025 23 259 1.6 6.4 0.00 0.00 0.00 72 1011.4
20260505011525 23 147 0.0 12.9 0.00 0.00 0.00 71 1011.3
20260505010023 23 205 0.0 6.4 0.00 0.00 0.00 70 1011.4
20260505004522 24 121 0.0 6.4 0.00 0.00 0.00 69 1011.5
20260505003022 24 122 1.6 11.3 0.00 0.00 0.00 69 1011.4
20260505001521 25 139 1.6 11.3 0.00 0.00 0.00 68 1011.4
20260505000019 25 118 3.2 16.1 0.00 0.00 0.00 68 1011.5
20260504234518 25 165 1.6 11.3 0.00 0.00 0.00 67 1011.7
20260504233018 25 212 1.6 9.7 0.00 0.00 0.00 66 1011.7
20260504231516 26 146 1.6 17.7 0.00 0.00 0.00 65 1011.7
20260504230015 26 173 3.2 12.9 0.00 0.00 0.00 64 1012.0
20260504224513 26 205 3.2 16.1 0.00 0.00 0.00 63 1011.9
20260504223012 26 135 1.6 11.3 0.00 0.00 0.00 62 1012.2
20260504221516 26 122 3.2 11.3 0.00 0.00 0.00 61 1012.4
20260504220009 26 193 1.6 9.7 0.00 0.00 0.00 60 1012.5
20260504214508 27 247 1.6 9.7 0.00 0.00 0.00 60 1012.6
20260504213008 27 238 0.0 11.3 0.00 0.00 0.00 60 1012.8
20260504211506 27 108 4.8 11.3 0.00 0.00 0.00 58 1013.1
20260504210004 27 125 3.2 12.9 0.00 0.00 0.00 59 1013.1
20260504204502 27 221 1.6 11.3 0.00 0.00 0.00 59 1013.5
20260504203059 27 212 1.6 14.5 0.00 0.00 0.00 59 1013.7
20260504201556 27 123 3.2 9.7 0.00 0.00 0.00 58 1014.1
20260504200057 26 149 3.2 11.3 0.00 0.00 0.00 59 1014.4
20260504194550 26 246 3.2 9.7 0.00 0.00 0.00 59 1014.6
20260504193049 26 59 3.2 11.3 0.00 0.00 0.00 59 1014.8
20260504191555 26 160 3.2 12.9 0.00 0.00 0.00 59 1014.9
20260504190052 26 133 1.6 9.7 0.00 0.00 0.00 58 1015.3
20260504184554 26 283 3.2 9.7 0.00 0.00 0.00 59 1015.4
20260504183049 26 190 1.6 11.3 0.00 0.00 0.00 59 1015.6
20260504181547 26 214 3.2 12.9 0.00 0.00 0.00 60 1015.7
20260504180039 26 172 6.4 16.1 0.00 0.00 0.00 57 1016.0
20260504174535 26 223 1.6 9.7 0.00 0.00 0.00 60 1016.0
20260504173033 25 225 3.2 9.7 0.00 0.00 0.00 60 1016.3
20260504171530 25 114 3.2 14.5 0.00 0.00 0.00 59 1016.5
20260504081523 13 153 0.0 0.0 0.00 0.00 0.00 84 1017.9
20260504044602 15 153 0.0 0.0 0.00 0.00 0.00 77 1019.8
20260504043058 15 153 0.0 0.0 0.00 0.00 0.00 76 1019.9
20260504041554 15 153 0.0 0.0 0.00 0.00 0.00 75 1019.9
20260504040103 16 153 0.0 0.0 0.00 0.00 0.00 74 1019.9
20260504034559 16 153 0.0 0.0 0.00 0.00 0.00 74 1019.9
20260504033125 16 153 0.0 0.0 0.00 0.00 0.00 73 1019.8
20260504031550 17 141 0.0 0.0 0.00 0.00 0.00 72 1019.9
20260504030050 17 165 0.0 0.0 0.00 0.00 0.00 72 1019.8
20260504024550 18 129 0.0 1.6 0.00 0.00 0.00 69 1019.6
20260504023100 18 137 0.0 1.6 0.00 0.00 0.00 67 1019.5
20260504021552 17 103 0.0 1.6 0.00 0.00 0.00 69 1019.5
20260504020056 18 226 0.0 0.0 0.00 0.00 0.00 69 1019.3